Simultaneous Nadir Overpasses (SNOs) Predictions

Prediction of SNOs between METOP-A and TERRA Satellite Orbit:

Table of predicted SNOs for the next 14.0 days since TLE Epoch: 5/18/2016
Index Date (METOP-A) Time (METOP-A) Lat,Lon (METOP-A) SZA (METOP-A ) Date (TERRA) Time (TERRA) Lat,Lon (TERRA) SZA (TERRA ) Distance(km) Time Diff (sec)
1 05/19/2016 06:22:24 81.32, 132.11 64.51 05/19/2016 06:22:56 81.32, 131.93 64.51 3.03 32
2 05/19/2016 07:13:04 -81.32, -60.35 115.47 05/19/2016 07:12:23 -81.32, -60.51 115.52 2.63 41
3 05/22/2016 01:56:47 81.32,-161.62 63.92 05/22/2016 01:57:13 81.32,-161.58 63.94 0.82 26
4 05/22/2016 02:47:27 -81.32, 5.92 116.06 05/22/2016 02:46:40 -81.32, 6.00 116.08 1.31 47
5 05/24/2016 21:31:09 81.32, -95.39 63.37 05/24/2016 21:31:29 81.32, -95.20 63.40 3.24 20
6 05/24/2016 22:21:48 -81.32, 72.56 116.56 05/24/2016 22:20:56 -81.32, 72.40 116.61 2.74 52
7 05/27/2016 17:05:31 81.32, -28.79 62.91 05/27/2016 17:05:46 81.31, -28.91 62.90 2.12 15
8 05/27/2016 17:56:10 -81.33, 139.17 117.02 05/27/2016 17:55:12 -81.33, 139.08 117.06 1.60 58
9 05/30/2016 12:39:53 81.32, 37.78 62.49 05/30/2016 12:40:02 81.32, 37.66 62.48 2.01 9




NCC Satellite Simultaneous Nadir Overpasses (SNOs) Prediction Service
